Regional Weather Roundup
Issued by NWS

Home | Current Version | Previous Version | Graphics & Text | Print | Product List | Glossary On
Versions: 1 2 3 4 5 6 7 8 9 10 11 12 13 14 15 16 17 18 19 20 21 22 23 24 25 26 27 28 29 30 31 32 33 34 35 36 37 38 39 40 41 42 43 44 45 46 47 48 49 50
000
ASUS43 KMKX 221412
RWRWI

WISCONSIN REGIONAL WEATHER ROUNDUP
NATIONAL WEATHER SERVICE MILWAUKEE/SULLIVAN WI
900 AM CDT WED OCT 22 2014

NOTE: "FAIR" INDICATES FEW OR NO CLOUDS BELOW 12,000 FEET WITH NO
SIGNIFICANT WEATHER AND/OR OBSTRUCTIONS TO VISIBILITY.

WIZ001-002-006>008-014>016-023>028-221500-
NORTHWEST WISCONSIN

CITY           SKY/WX    TMP DP  RH WIND       PRES   REMARKS
SUPERIOR ARPT  NOT AVBL
ASHLAND        NOT AVBL
HAYWARD        NOT AVBL
SIREN          NOT AVBL
CUMBERLAND     NOT AVBL
RICE LAKE      NOT AVBL
CHETEK         NOT AVBL
LADYSMITH      NOT AVBL
EAU CLAIRE     NOT AVBL
MENOMONIE      NOT AVBL
NEW RICHMOND   NOT AVBL
OSCEOLA        NOT AVBL
$$

WIZ003>005-009-010-017-018-221500-
NORTH CENTRAL WISCONSIN

CITY           SKY/WX    TMP DP  RH WIND       PRES   REMARKS
MANITOWISH WTR NOT AVBL
ARBOR VITAE    NOT AVBL
WOODRUFF       NOT AVBL
RHINELANDER    NOT AVBL
EAGLE RIVER    NOT AVBL
LAND O LAKES   NOT AVBL
PHILLIPS       NOT AVBL
TOMAHAWK       NOT AVBL
MEDFORD        NOT AVBL
MERRILL        NOT AVBL
$$

WIZ029-030-035-036-043>047-221500-
CENTRAL WISCONSIN

CITY           SKY/WX    TMP DP  RH WIND       PRES   REMARKS
WAUSAU         NOT AVBL
MOSINEE        NOT AVBL
MARSHFIELD     NOT AVBL
STEVENS POINT  NOT AVBL
WAUPACA        NOT AVBL
WAUTOMA        NOT AVBL
WISC RAPIDS    NOT AVBL
CAMP DOUGLAS   NOT AVBL
$$

WIZ011>013-019>022-031-037>040-048>050-221500-
NORTHEAST WISCONSIN

CITY           SKY/WX    TMP DP  RH WIND       PRES   REMARKS
ANTIGO         NOT AVBL
SHAWANO        NOT AVBL
OCONTO         NOT AVBL
STURGEON BAY   SUNNY     39  34  81 CALM      30.39R
GREEN BAY      NOT AVBL
MANITOWOC      NOT AVBL
APPLETON       NOT AVBL
CLINTONVILLE   NOT AVBL
OSHKOSH        NOT AVBL
$$

WIZ032>034-041-042-053>061-221500-
SOUTHWEST WISCONSIN

CITY           SKY/WX    TMP DP  RH WIND       PRES   REMARKS
LA CROSSE      NOT AVBL
SPARTA         NOT AVBL
VIROQUA        NOT AVBL
BOSCOBEL       NOT AVBL
PRAIRIE DU CHI NOT AVBL
PLATTEVILLE    NOT AVBL
$$

WIZ056-057-062-063-064-067-068-221500-
SOUTH CENTRAL WISCONSIN

CITY           SKY/WX    TMP DP  RH WIND       PRES   REMARKS
REEDSBURG      NOT AVBL
BARABOO/DELLS  NOT AVBL
LONE ROCK      NOT AVBL
MINERAL POINT  NOT AVBL
MADISON        NOT AVBL
MIDDLETON      NOT AVBL
WATERTOWN      NOT AVBL
MONROE         NOT AVBL
JANESVILLE     NOT AVBL
$$

WIZ051-052-058>065-066-070>072-221500-
SOUTHEAST WISCONSIN

CITY           SKY/WX    TMP DP  RH WIND       PRES   REMARKS
MILWAUKEE      NOT AVBL
WAUKESHA       NOT AVBL
MILWAUKEE/TIMM NOT AVBL
RACINE         NOT AVBL
BURLINGTON     NOT AVBL
KENOSHA        NOT AVBL
FOND DU LAC    NOT AVBL
SHEBOYGAN      NOT AVBL
WEST BEND      NOT AVBL
JUNEAU         NOT AVBL
$$

LSZ147-162-221500-
LAKE SUPERIOR

STATION/POSITION TIME  TEMP    WIND        PRES    WAVE
                       AIR SEA DIR/SP/G            HT/PER
                 (UTC) (F)     (DEG/KT/KT) (MB)    (FT/S)
W MID LAKE BUOY  1250   45 46  180/ 14/ 16 1026.1R   3/ 4
DEVILS ISLAND    1300   43     170/  7/  9 1025.7R
PORT WING        1340   42     160/  6/ 10 1024.0S
SAXON HARBOR     1300   33        CALM     1025.1
$$

LMZ867-665-643>646-221500-
LAKE MICHIGAN

STATION/POSITION TIME  TEMP    WIND        PRES    WAVE
                       AIR SEA DIR/SP/G            HT/PER
                 (UTC) (F)     (DEG/KT/KT) (MB)    (FT/S)
CHAMBERS ISLAND  1300   44     130/  3/  5 1028.8R
N MID LAKE BUOY  1250   44 51  180/  6/  8 1029.6R   1/ 3
NORTHPORT PIER   1300   42     150/  2/  5 1028.8R
SISTER BAY       1228             CALM       N/A
KEWAUNEE LAKESHO 1300   32     300/  4/  5 1027.7R
SHEBOYGAN LAKESH 1300   46 49  110/  8/  9 1028.9R
PORT WASHINGTON  1340   43     260/  4/  4 1029.1R
ATWATER BUOY     1300   49     120/ 12/ 14 1028.6R
MILWAUKEE LAKESH 1300   43     320/  2/  2   N/A
S MID LAKE BUOY  1250   47 54  100/  6/  8 1028.4R   2/ 6
KENOSHA   LAKESH 1300   41      CALM  /  2 1027.4R
$$

TC  - TEMPERATURE IN CELSIUS
VSB - VISIBILITY IN STATUTE MILES
WCI - WIND CHILL INDEX
HX  - HEAT INDEX




USA.gov is the U.S. government's official web portal to all federal, state and local government web resources and services.